VTNAP VAJJ-VAPO

Flight info

Callsign VTNAP
Flight time N/A
Altitude 3000
Route BBB MAHALAXMI RACECOURSE PPN MANJRI HELIPAD
Aircraft EC35/L-ICAO/LB1

Departure

Time 2026-04-19 15:08
Airport Juhu Aerodrome (VAJJ)

Arrival

Time N/A
Airport Pune International Airport (VAPO)
Time Latitude Longitude Altitude Speed Heading
2026-04-19 15:05 19.09836 72.83368 15 ft 0 kts 260°
2026-04-19 15:05 19.09836 72.83369 15 ft 0 kts 265°
2026-04-19 15:06 19.09836 72.83368 15 ft 0 kts 256°
2026-04-19 15:06 19.09836 72.83369 15 ft 0 kts 283°
2026-04-19 15:06 19.09835 72.83369 15 ft 0 kts 270°
2026-04-19 15:06 19.09831 72.83362 36 ft 8 kts
2026-04-19 15:07 19.09824 72.83444 51 ft 13 kts 155°
2026-04-19 15:07 19.09738 72.83569 159 ft 34 kts 160°
2026-04-19 15:07 19.09592 72.83969 256 ft 81 kts 109°
2026-04-19 15:07 19.09575 72.84613 393 ft 90 kts 92°
2026-04-19 15:08 19.09597 72.85344 385 ft 108 kts 89°
2026-04-19 15:08 19.09646 72.86138 483 ft 105 kts 85°
2026-04-19 15:08 19.09687 72.86835 814 ft 82 kts 85°
2026-04-19 15:08 19.09707 72.87315 1276 ft 48 kts 86°
2026-04-19 15:09 19.09682 72.87559 1422 ft 42 kts 87°
2026-04-19 15:09 19.09227 72.87824 1022 ft 97 kts 174°
2026-04-19 15:09 19.08600 72.87948 1268 ft 81 kts 184°
2026-04-19 15:09 19.08097 72.87871 1479 ft 70 kts 213°
2026-04-19 15:10 19.07646 72.87654 1537 ft 75 kts 215°
2026-04-19 15:10 19.07167 72.87394 1580 ft 79 kts 217°
2026-04-19 15:10 19.06678 72.87101 1614 ft 82 kts 219°
2026-04-19 15:10 19.06187 72.86782 1519 ft 84 kts 221°
2026-04-19 15:11 19.05697 72.86439 1355 ft 85 kts 223°
2026-04-19 15:11 19.05221 72.86079 1193 ft 85 kts 224°
2026-04-19 15:11 19.04752 72.85695 1030 ft 85 kts 226°
2026-04-19 15:11 19.04296 72.85295 870 ft 85 kts 227°
2026-04-19 15:12 19.03857 72.84880 714 ft 84 kts 229°
2026-04-19 15:12 19.03434 72.84448 584 ft 85 kts 230°
2026-04-19 15:12 19.03025 72.84000 534 ft 84 kts 231°
2026-04-19 15:12 19.02636 72.83544 487 ft 83 kts 233°
2026-04-19 15:13 19.02263 72.83078 440 ft 83 kts 235°
2026-04-19 15:13 19.01907 72.82599 395 ft 83 kts 236°
2026-04-19 15:13 19.01572 72.82126 461 ft 67 kts 238°
2026-04-19 15:13 19.01380 72.81965 762 ft 13 kts 236°
2026-04-19 15:14 19.01362 72.82094 692 ft 21 kts 238°
2026-04-19 15:14 19.01341 72.82188 676 ft 17 kts 240°
2026-04-19 15:14 19.01102 72.82106 732 ft 53 kts 205°
2026-04-19 15:14 19.00901 72.82246 834 ft 9 kts 164°
2026-04-19 15:15 19.00933 72.82264 920 ft 22 kts 130°
2026-04-19 15:15 19.01071 72.82420 851 ft 24 kts 101°
2026-04-19 15:15 19.00997 72.82368 894 ft 27 kts 312°
2026-04-19 15:15 19.00953 72.82419 812 ft 46 kts 257°
2026-04-19 15:16 19.01026 72.82912 1025 ft 46 kts 260°
2026-04-19 15:16 19.01033 72.82862 1131 ft 57 kts 269°
2026-04-19 15:16 19.01026 72.82593 976 ft 7 kts 267°
2026-04-19 15:16 19.01034 72.82571 999 ft 12 kts 267°
2026-04-19 15:17 19.01014 72.82449 880 ft 1 kts 267°
2026-04-19 15:17 19.01000 72.82431 841 ft 28 kts 267°
2026-04-19 15:17 19.00997 72.82329 799 ft 0 kts 277°
2026-04-19 15:17 19.00997 72.82314 875 ft 22 kts 276°
2026-04-19 15:18 19.00492 72.82139 413 ft 143 kts 171°
2026-04-19 15:18 18.99437 72.82222 301 ft 149 kts 187°
2026-04-19 15:18 18.98756 72.82226 197 ft 39 kts 187°
2026-04-19 15:18 18.98650 72.82249 15 ft 6 kts 185°
2026-04-19 15:19 18.98612 72.82259 18 ft 8 kts 174°
2026-04-19 15:19 18.98466 72.82244 44 ft 43 kts 191°
2026-04-19 15:19 18.98259 72.82179 10 ft 0 kts 197°
2026-04-19 15:19 18.98250 72.82286 21 ft 69 kts 86°
2026-04-19 15:20 18.98501 72.82941 138 ft 118 kts 83°
2026-04-19 15:20 18.98596 72.83831 332 ft 122 kts 81°
2026-04-19 15:20 18.98711 72.84709 251 ft 119 kts 82°
2026-04-19 15:20 18.98824 72.85558 180 ft 117 kts 81°
2026-04-19 15:21 18.98936 72.86402 214 ft 108 kts 81°
2026-04-19 15:21 18.99033 72.87141 315 ft 100 kts 81°
2026-04-19 15:21 18.99016 72.87866 393 ft 98 kts 96°
2026-04-19 15:21 18.98970 72.88583 474 ft 98 kts 85°
2026-04-19 15:22 18.99592 72.88942 632 ft 129 kts 338°
2026-04-19 15:22 19.00441 72.88720 804 ft 129 kts 339°
2026-04-19 15:22 19.01377 72.88519 625 ft 142 kts 342°
2026-04-19 15:22 19.02347 72.88387 642 ft 139 kts 347°
2026-04-19 15:23 19.03302 72.88300 683 ft 137 kts 349°
2026-04-19 15:23 19.04271 72.88226 644 ft 140 kts 349°
2026-04-19 15:23 19.05235 72.88137 592 ft 142 kts 349°
2026-04-19 15:23 19.06204 72.87961 542 ft 143 kts 349°
2026-04-19 15:24 19.07100 72.88107 424 ft 106 kts
2026-04-19 15:24 19.07698 72.88020 287 ft 84 kts 321°
2026-04-19 15:24 19.08105 72.87627 126 ft 70 kts 308°
2026-04-19 15:24 19.08382 72.87326 81 ft 43 kts 308°
2026-04-19 15:25 19.08523 72.87187 117 ft 16 kts 307°
2026-04-19 15:25 19.08630 72.87055 113 ft 32 kts 304°
2026-04-19 15:25 19.08689 72.86854 79 ft 23 kts 288°
2026-04-19 15:25 19.08719 72.86715 71 ft 20 kts 287°
2026-04-19 15:26 19.08737 72.86594 53 ft 11 kts 284°
2026-04-19 15:26 19.08736 72.86571 49 ft 1 kts 294°
2026-04-19 15:26 19.08730 72.86483 58 ft 19 kts 292°
2026-04-19 15:26 19.08717 72.86438 44 ft 0 kts 358°